Vorticity
nan nan nan nan nan nan nan nan nan nan nan nan nan nan nan nan nan nan nan nan nan nan nan nan nan nan nan nan nan nan nan nan nan nan nan nan nan nan nan nan nan nan nan nan nan nan nan nan nan nan nan nan nan nan nan nan nan nan nan nan nan nan nan nan nan nan nan nan nan nan nan nan nan nan nan nan nan nan nan nan nan nan nan nan nan nan nan nan nan nan nan nan nan nan nan nan nan nan nan nan nan nan nan
nan 6 6 5 5 5 4 4 4 5 8 11 13 13 10 8 6 5 4 4 4 4 2 1 2 5 7 9 9 9 12 15 17 15 12 12 12 11 13 14 15 12 10 10 12 13 12 9 9 11 13 12 7 4 3 3 -0 -0 3 7 9 11 9 6 4 3 4 5 3 2 2 3 3 4 4 4 3 2 2 2 2 2 3 5 12 19 24 26 23 16 11 8 7 7 5 1 -3 2 5 6 8 7 nan
nan 6 5 5 5 5 4 4 4 5 8 10 13 15 13 9 6 5 4 4 3 4 4 3 4 7 9 9 9 10 15 17 16 13 11 12 13 12 12 12 13 11 9 10 13 13 10 7 11 16 15 12 6 3 3 2 1 2 6 10 11 10 8 5 3 3 4 6 4 3 3 3 3 4 4 3 3 2 2 2 2 3 7 14 23 28 28 24 17 12 9 7 5 2 -2 -6 -4 4 7 6 5 3 nan
nan 5 5 5 5 4 4 4 5 7 8 9 11 13 13 11 9 6 5 4 4 4 5 5 7 9 9 9 7 10 16 18 15 10 9 11 14 12 10 7 8 9 6 9 12 11 8 10 17 18 12 8 5 6 5 2 4 5 8 10 11 9 7 5 2 3 4 6 6 5 4 3 3 4 3 3 2 2 2 2 3 6 15 25 31 30 24 18 12 8 6 4 1 -6 -9 -6 3 7 6 4 3 4 nan
nan 4 5 5 5 5 4 4 5 7 8 9 9 10 11 14 12 7 6 5 5 5 6 7 10 11 10 9 7 10 15 16 12 9 8 11 13 12 8 1 3 6 5 8 8 7 11 17 20 17 11 7 8 7 4 2 5 7 8 9 10 9 7 4 2 2 4 6 6 6 5 4 4 4 3 3 2 2 2 2 3 11 23 31 30 23 17 11 6 4 1 -1 -7 -10 -3 4 9 7 4 3 4 6 nan
nan 4 4 4 4 5 4 4 5 6 7 7 7 9 13 15 11 5 6 7 7 5 7 10 13 12 11 8 6 8 11 11 9 8 9 10 11 9 4 0 3 5 5 6 6 10 16 17 13 13 12 11 9 5 3 3 5 6 6 7 10 9 8 5 2 2 4 5 6 6 5 4 4 4 3 3 2 2 2 1 1 13 22 25 21 14 9 4 2 0 -3 -6 -10 -2 6 10 9 5 3 4 6 7 nan
nan 4 4 3 4 5 5 4 5 5 6 6 7 10 12 12 7 4 7 8 8 7 9 13 15 12 9 6 4 6 8 7 6 9 10 9 5 3 3 5 6 5 6 7 8 12 13 9 7 11 12 12 7 4 4 4 3 4 6 7 10 10 8 5 3 3 4 5 6 6 5 5 4 3 3 2 3 2 0 -2 0 10 14 12 9 6 3 1 -1 -3 -5 -7 -3 5 9 9 7 4 4 6 8 6 nan
nan 6 4 2 3 5 6 5 5 5 5 5 7 10 10 8 5 6 8 7 7 8 11 14 14 10 7 4 4 6 6 4 6 10 10 6 2 2 5 7 6 5 8 8 8 9 9 7 11 13 10 8 6 5 6 6 3 4 6 8 11 11 8 5 4 4 5 5 5 5 5 5 4 3 3 2 2 1 -2 -2 3 7 7 6 1 -1 -2 -3 -4 -7 -6 -2 4 8 10 8 5 5 6 7 7 6 nan
nan 9 6 4 3 5 6 6 5 4 4 5 7 8 7 6 6 8 8 8 6 7 10 13 11 8 5 5 7 7 6 4 7 9 7 4 1 3 6 6 5 6 8 8 9 11 11 13 15 14 9 5 4 6 8 8 5 5 7 9 11 11 9 6 6 5 5 5 6 6 5 5 4 3 3 1 1 -1 -2 -0 6 8 8 6 2 -3 -6 -8 -9 -6 -1 4 8 11 11 8 5 6 6 7 6 6 nan
nan 11 7 6 3 4 6 6 4 3 4 6 7 7 6 6 7 7 7 8 6 6 9 10 8 6 6 7 8 7 7 7 9 8 6 4 1 2 5 7 7 7 8 10 13 13 12 11 8 5 4 4 5 8 10 9 7 5 7 8 10 11 9 5 3 2 3 4 6 5 5 5 4 2 -0 -0 -2 -3 0 4 7 8 9 8 5 -1 -6 -7 -5 1 5 8 9 10 8 4 4 5 6 6 6 6 nan
nan 9 8 7 4 4 6 5 3 3 6 7 6 6 6 7 7 7 7 7 6 6 8 8 7 7 8 9 9 8 8 10 10 8 7 6 3 2 6 9 9 5 6 11 12 9 6 1 -2 -2 0 6 11 11 11 9 6 4 5 6 9 10 6 2 -2 -3 -1 1 2 1 3 4 3 -1 -4 -2 -1 2 5 7 7 8 9 9 6 2 1 1 5 8 8 8 9 7 4 3 4 5 6 6 6 6 nan
nan 8 8 7 5 5 6 4 2 3 6 7 6 6 7 7 7 7 7 7 7 7 7 8 7 7 8 9 8 8 9 11 11 9 8 6 6 8 8 9 6 3 5 10 10 6 4 -1 -1 1 2 7 10 9 10 9 5 3 4 5 9 9 3 0 -2 -3 -1 -2 -3 -1 2 3 0 -3 -3 -1 3 6 7 6 6 7 9 8 5 5 6 7 9 9 9 8 7 4 3 4 6 6 6 6 6 7 nan
nan 7 8 6 5 5 7 5 1 2 6 6 6 8 7 6 5 7 7 7 6 6 7 7 7 8 8 9 8 8 10 12 10 8 6 5 8 11 10 7 3 3 6 10 11 8 5 2 4 5 4 6 6 6 8 8 6 5 6 7 9 7 2 2 2 2 2 1 -1 2 4 4 1 -1 -0 2 5 7 7 6 6 9 10 8 6 6 8 9 10 10 9 8 6 5 5 6 6 6 7 7 7 7 nan
nan 6 7 6 5 6 7 6 1 0 5 7 8 8 6 5 5 7 7 7 6 6 6 7 8 8 8 8 7 7 8 10 10 8 6 7 8 8 7 5 4 6 7 10 14 11 4 4 7 7 5 6 7 8 8 7 7 7 7 7 8 6 4 5 5 5 5 4 3 4 6 6 4 2 1 3 6 7 7 6 8 10 12 10 8 8 9 10 11 11 9 7 7 7 6 6 6 7 7 7 7 8 nan
nan 6 6 6 5 6 7 7 3 -1 4 7 7 6 6 5 6 6 7 7 7 6 6 7 8 8 7 7 7 7 7 8 10 11 8 8 5 4 5 5 9 10 7 8 13 12 6 7 9 7 6 7 8 8 8 7 8 7 7 7 7 6 6 6 6 6 6 5 4 5 6 6 5 3 3 4 6 6 7 7 9 11 14 14 11 10 11 12 12 10 8 7 8 7 6 6 7 8 7 7 7 7 nan
nan 5 6 7 6 5 6 7 5 2 3 5 6 6 6 6 6 6 7 8 8 6 5 6 8 8 8 7 6 6 7 9 12 11 7 5 3 4 6 7 10 11 7 7 9 10 8 9 8 7 7 9 10 8 7 7 8 7 7 7 7 6 6 7 7 6 5 5 5 6 6 7 6 5 4 5 5 6 6 6 8 12 15 15 12 10 11 11 10 8 7 8 8 6 5 6 8 8 8 8 7 7 nan
nan 5 6 6 6 6 6 5 5 4 4 4 6 6 6 7 7 7 8 8 7 6 5 7 8 7 7 7 6 6 8 9 10 8 7 4 4 6 6 6 7 9 8 7 6 7 7 8 7 7 8 11 11 7 6 7 8 7 7 7 7 6 6 7 7 6 5 5 6 6 7 7 6 5 5 4 5 6 6 5 7 12 14 13 10 7 7 7 7 6 7 8 7 5 6 7 8 8 8 8 7 7 nan
nan 6 7 7 6 6 6 5 4 5 6 5 5 5 7 8 8 7 7 6 6 7 7 7 6 6 7 7 7 8 8 7 7 8 9 9 7 5 6 5 6 9 9 6 5 7 7 6 6 8 9 12 11 6 5 7 7 7 7 7 7 6 6 7 7 7 5 5 6 7 7 7 7 6 5 5 5 5 5 4 7 13 14 12 7 4 5 6 6 7 7 7 5 6 8 8 9 9 9 8 7 7 nan
nan 9 8 7 7 6 5 4 4 6 6 7 5 5 8 8 8 7 6 6 7 8 9 7 5 6 7 8 9 8 7 6 7 9 10 11 9 5 5 4 6 7 7 6 6 8 7 5 7 8 9 10 9 6 7 7 7 7 7 7 7 6 6 7 7 7 6 5 6 6 7 7 7 6 6 7 7 6 5 4 7 12 13 9 6 5 7 8 8 6 6 6 6 8 9 8 8 9 8 7 6 7 nan
nan 9 8 7 6 6 6 4 4 6 6 6 5 6 8 8 8 7 6 7 7 8 10 7 4 6 8 10 9 6 6 6 7 8 9 10 10 7 4 3 2 3 5 5 8 9 7 6 6 8 9 10 8 7 8 7 7 7 8 8 7 6 6 7 7 7 6 6 6 6 7 7 7 7 6 6 7 7 5 5 8 10 9 8 9 10 10 9 7 6 7 7 7 7 7 7 7 8 7 5 5 6 nan
nan 9 7 6 5 5 5 5 5 5 4 4 6 9 8 8 8 7 7 7 7 8 9 7 6 8 9 9 7 5 6 7 6 5 6 9 13 12 6 1 -1 3 5 7 9 10 8 6 5 7 9 9 8 8 7 7 7 7 8 8 7 7 7 7 7 7 7 7 7 7 7 7 7 7 6 5 7 7 6 6 7 9 9 10 10 9 9 8 8 8 8 7 6 5 5 6 8 7 6 4 5 6 nan
nan 9 8 7 5 5 5 2 4 5 4 5 8 9 7 8 8 8 8 7 7 8 8 8 9 9 8 7 6 6 7 7 7 5 4 10 14 11 7 4 2 4 7 7 9 11 9 6 5 5 8 9 9 9 7 7 7 8 8 7 7 7 7 7 8 7 7 7 8 8 7 7 7 7 6 5 6 6 6 7 8 10 10 10 8 6 7 8 8 8 7 5 4 5 7 7 7 7 7 6 7 7 nan
nan 10 9 8 5 5 6 3 3 5 5 7 9 7 7 8 8 8 7 7 6 7 8 9 10 8 6 5 7 8 8 7 7 7 7 10 11 7 4 8 8 7 10 7 8 10 8 6 4 4 7 9 10 9 7 6 7 8 8 7 7 8 8 8 8 8 7 7 8 8 8 8 7 7 7 6 5 5 7 7 8 11 10 9 6 5 6 7 8 8 6 5 5 7 8 7 7 8 9 8 7 7 nan
nan 10 9 8 7 5 6 5 5 5 5 8 8 6 6 7 8 7 6 6 6 7 8 10 8 6 6 6 7 8 8 8 7 9 10 10 6 3 3 8 9 8 10 9 11 9 7 6 5 4 7 9 9 8 7 7 8 8 7 7 7 8 9 9 9 8 7 7 8 8 9 8 7 7 6 6 5 5 7 7 9 11 10 8 6 6 7 8 9 6 5 5 7 8 8 7 8 8 8 7 7 7 nan
nan 9 9 9 8 6 6 6 6 5 5 7 6 4 6 8 7 6 6 6 7 9 10 9 7 6 6 6 7 8 8 8 9 11 11 10 4 2 5 8 6 4 6 10 12 10 8 9 6 3 5 7 8 6 6 9 9 7 6 7 7 8 10 11 10 7 6 6 7 7 7 7 7 8 7 5 5 7 8 8 9 11 11 9 8 8 8 9 7 4 4 6 8 8 8 7 8 8 7 7 7 7 nan
nan 7 8 10 9 6 5 6 6 5 4 5 5 4 6 8 7 6 7 7 8 11 12 7 5 7 6 6 7 8 8 8 10 11 11 13 9 4 5 5 3 3 7 9 10 10 10 10 5 2 4 6 7 6 7 8 8 6 7 8 8 8 10 11 9 5 4 5 5 5 5 6 8 9 9 7 6 8 8 8 9 10 9 8 8 8 7 6 6 6 6 6 7 7 7 7 8 7 7 8 7 6 nan
nan 6 6 11 12 8 5 6 5 3 3 4 5 6 7 7 6 7 7 7 9 12 12 6 4 7 7 6 7 9 8 8 10 12 13 17 15 8 5 3 0 4 9 10 8 8 10 9 5 5 5 6 7 7 7 7 6 7 9 10 8 5 7 9 7 4 5 6 6 5 5 5 7 9 10 9 8 8 8 7 9 10 8 7 7 7 6 6 6 6 5 6 7 7 7 8 9 8 8 8 7 6 nan
nan 6 4 10 14 10 6 6 4 3 5 5 5 7 7 6 6 7 6 7 9 11 10 5 5 8 7 6 7 8 9 9 9 11 14 17 17 12 7 5 0 2 8 11 8 7 9 8 6 7 6 7 7 8 8 7 5 7 10 10 6 5 5 7 6 6 7 7 6 5 5 4 5 7 9 9 9 9 9 8 10 11 9 7 6 6 6 6 6 6 6 7 7 7 8 9 9 8 7 8 7 6 nan
nan 7 5 10 15 10 5 5 4 4 6 6 5 6 6 6 6 6 5 7 9 10 10 5 5 8 7 7 7 8 9 8 8 10 13 14 17 16 11 10 3 1 8 12 10 6 6 7 8 7 6 7 8 9 9 6 5 8 10 7 5 5 6 8 7 5 7 7 6 5 5 4 5 6 7 8 8 9 9 10 11 11 9 8 7 6 6 7 7 7 7 7 8 8 8 9 8 8 8 8 7 6 nan
nan 8 7 9 12 10 5 5 5 5 5 5 5 7 7 6 5 5 5 7 8 9 10 6 5 6 7 8 7 8 9 8 7 9 12 12 15 16 12 9 6 4 8 11 11 7 3 4 7 7 7 9 9 9 8 5 7 11 9 4 3 6 8 10 8 5 6 6 6 7 6 6 6 6 6 7 8 9 9 10 11 11 9 8 7 7 6 7 7 7 7 8 8 8 7 7 8 9 9 8 7 5 nan
nan 9 8 9 11 9 6 5 5 5 4 4 5 6 7 6 6 6 7 7 8 10 11 7 4 5 7 8 7 8 8 7 7 8 10 12 14 14 12 6 5 8 9 10 11 8 2 1 6 8 7 10 11 9 8 8 11 10 4 1 3 6 8 10 9 6 6 5 6 6 7 8 8 6 5 7 9 9 9 9 10 11 11 10 8 7 7 7 7 7 8 8 9 8 7 7 9 10 9 7 6 5 nan
nan 8 8 9 10 9 6 5 6 6 3 4 5 5 6 7 8 8 7 6 7 10 10 7 3 5 7 7 8 8 8 8 7 7 8 10 13 15 15 5 3 8 9 10 9 5 1 -1 6 9 6 10 12 9 8 10 11 7 2 2 4 6 6 8 8 8 8 8 6 5 6 9 9 7 6 6 8 9 9 9 9 9 11 11 9 7 7 6 6 7 8 8 9 8 7 8 9 9 8 7 6 6 nan
nan 5 9 10 9 7 6 5 7 7 5 5 5 4 6 7 8 8 7 6 7 8 9 8 5 5 7 7 8 9 9 8 7 7 9 10 12 17 17 5 2 7 6 9 9 5 1 -3 5 10 7 10 12 9 8 11 10 6 3 3 4 5 5 6 7 7 9 10 9 7 6 7 9 9 8 7 8 9 8 8 8 8 9 10 9 7 7 6 7 7 8 8 8 7 7 8 8 9 8 8 7 7 nan
nan 5 11 11 8 6 5 4 6 8 7 7 6 5 7 9 8 7 7 7 7 7 8 10 8 6 7 7 8 8 9 8 6 6 9 11 14 18 17 5 2 6 6 8 11 10 2 -6 3 12 9 11 12 9 9 10 9 5 2 3 6 6 6 6 5 6 8 9 10 9 7 8 7 8 10 9 8 8 8 7 7 8 9 10 9 7 7 7 7 6 7 7 7 7 8 9 9 9 10 8 6 7 nan
nan 8 11 12 7 3 4 5 6 7 8 9 8 7 8 9 7 6 7 8 8 8 9 9 9 9 9 8 8 8 8 8 6 4 7 12 17 19 15 4 2 6 7 8 12 14 5 -7 -1 12 14 11 10 9 8 10 9 4 -0 2 7 8 8 6 4 5 7 8 9 9 9 10 8 8 12 10 7 6 7 8 8 9 10 11 10 8 7 7 5 5 7 7 8 7 8 9 10 10 9 7 5 7 nan
nan 8 10 12 7 2 3 4 6 7 8 9 8 7 8 8 7 6 7 7 8 9 9 8 9 11 12 11 9 7 8 8 7 4 6 11 17 18 14 5 3 8 8 10 13 13 5 -5 -3 11 17 13 8 5 6 9 9 4 -0 3 7 8 8 8 5 5 7 8 9 9 9 10 10 9 9 9 8 7 7 8 9 10 11 11 9 7 7 7 5 5 7 8 8 7 8 10 11 9 7 7 7 7 nan
nan 6 9 11 8 4 3 4 6 7 8 8 7 7 8 8 7 7 7 7 7 8 8 7 8 11 12 12 10 8 8 9 8 6 6 8 12 16 16 7 5 9 10 13 15 9 3 -2 -1 10 17 14 8 3 4 7 8 5 2 4 6 7 9 9 6 4 7 9 9 9 9 8 10 10 7 6 8 9 7 8 10 10 9 8 7 9 9 8 6 5 7 8 8 9 10 11 10 8 7 7 8 8 nan
nan 9 11 10 7 5 3 5 6 6 6 7 7 6 7 8 8 7 7 6 5 6 7 8 9 9 10 10 10 10 9 10 10 9 7 5 6 13 15 9 8 12 14 15 13 4 -2 -2 3 10 15 15 10 4 3 5 8 6 3 3 5 8 10 11 7 5 8 9 9 9 8 7 10 12 8 5 6 7 6 9 11 11 9 7 7 8 8 8 6 6 6 7 9 11 12 12 9 7 7 7 8 8 nan
nan 11 12 7 5 5 3 4 5 5 5 6 6 6 7 7 8 9 9 7 5 7 8 7 8 9 8 7 8 11 12 11 12 12 9 4 3 8 9 8 12 17 17 15 13 2 -8 -4 6 10 12 15 12 6 2 4 8 8 3 1 4 9 12 13 10 8 10 11 10 9 7 6 9 12 10 6 4 4 7 9 11 11 9 8 6 4 3 4 6 6 7 7 9 12 13 13 9 6 7 7 7 8 nan
nan 10 9 6 4 4 4 5 5 4 3 6 7 6 7 6 7 8 9 9 7 7 9 9 9 8 6 7 9 11 12 12 14 14 11 5 2 3 4 5 11 16 16 14 15 5 -7 -3 6 9 10 13 12 7 5 5 9 7 3 1 5 10 13 15 13 11 12 13 11 8 5 4 7 10 9 9 5 4 7 10 11 10 7 3 2 3 3 3 3 4 6 6 8 10 12 13 11 9 8 7 7 7 nan
nan 9 8 6 4 3 6 8 6 4 4 5 5 5 7 8 9 8 7 10 10 7 7 8 9 8 8 8 10 11 12 13 13 13 13 10 3 1 4 4 4 9 14 17 16 6 -5 -1 5 7 9 14 11 7 5 6 9 7 3 3 7 12 14 12 11 12 11 11 11 9 4 2 5 8 8 9 6 7 8 12 12 9 5 -1 1 7 7 5 3 3 4 4 6 8 9 10 12 11 9 8 7 7 nan
nan 8 8 7 5 3 4 6 7 8 7 3 2 6 9 10 10 8 6 8 12 9 6 6 9 10 9 9 10 11 11 12 11 11 13 14 9 6 8 7 4 2 7 16 20 7 -4 1 5 5 9 13 11 7 4 6 8 7 5 6 8 12 13 9 8 10 8 7 10 11 6 3 1 4 7 8 8 8 9 13 12 8 5 2 4 6 4 5 6 6 4 4 5 6 6 6 8 10 9 10 10 9 nan
nan 9 8 7 6 4 4 4 8 11 8 4 3 7 9 10 11 10 8 10 13 10 7 5 8 11 11 10 9 11 11 12 10 10 12 16 16 12 11 14 11 2 2 13 21 10 -1 -0 3 6 9 9 8 6 3 5 8 9 8 8 9 12 12 9 7 5 7 9 11 10 8 5 3 2 4 6 8 8 9 11 11 9 6 3 4 5 4 4 6 7 7 7 6 6 5 5 5 8 9 9 10 11 nan
nan 10 9 8 7 6 4 2 7 11 10 6 5 8 10 11 11 9 9 12 12 10 8 7 11 14 12 10 9 10 11 12 12 11 11 14 19 17 15 19 20 9 3 7 17 14 3 -3 0 8 11 8 7 5 1 4 8 10 10 9 10 11 10 8 6 3 7 10 11 10 11 9 7 -0 -1 3 9 8 8 9 10 8 6 4 6 8 6 4 4 6 8 9 10 10 8 8 7 7 9 7 6 11 nan
nan 11 10 8 7 6 4 3 5 10 12 7 4 6 8 7 6 6 8 11 11 8 7 8 11 12 10 8 9 9 11 13 13 10 9 11 16 19 21 25 23 14 7 2 11 17 8 -2 -1 6 10 5 6 7 4 6 10 11 8 8 10 10 9 8 5 4 6 10 11 13 13 13 9 0 -4 1 7 8 8 9 10 8 6 7 9 9 8 4 3 3 4 6 10 11 11 10 9 9 10 10 5 9 nan
nan 11 10 8 6 5 4 5 7 10 10 5 3 4 4 4 4 5 7 8 6 4 5 6 7 8 7 7 6 7 9 12 12 10 8 9 13 19 25 29 24 14 8 -0 8 18 12 5 -2 1 8 4 5 11 11 8 8 10 8 8 9 9 8 7 6 5 6 9 11 12 14 15 8 1 -2 2 6 9 8 8 8 8 7 9 11 9 6 3 4 5 4 4 7 8 9 9 9 10 10 10 7 7 nan
nan 11 9 7 5 4 4 6 10 11 8 4 2 2 4 5 5 6 7 6 5 5 5 6 7 7 8 9 7 6 8 11 12 10 8 8 12 18 24 27 22 14 8 4 8 15 13 8 -0 -1 8 9 4 7 12 10 6 7 8 8 8 10 10 6 3 4 5 8 10 10 13 18 11 2 2 5 8 9 8 6 6 7 8 10 10 9 5 3 6 9 9 7 7 9 9 9 9 11 10 8 7 6 nan
nan 11 9 7 4 3 4 9 11 10 10 5 1 3 6 5 6 8 7 7 6 6 6 7 6 6 8 10 9 7 8 10 11 10 9 9 11 15 18 22 22 16 8 7 9 11 8 7 5 3 8 13 4 0 9 8 5 5 6 7 9 12 13 8 3 2 3 6 10 11 13 18 14 3 2 5 9 8 6 6 6 6 6 8 9 9 7 5 5 8 10 13 14 14 13 11 10 9 10 8 9 7 nan
nan 10 9 7 4 3 5 9 10 10 9 6 1 2 6 6 8 10 8 7 6 6 6 5 4 5 7 10 11 8 7 9 11 12 11 10 9 11 13 17 20 17 9 4 7 11 6 8 9 6 8 14 5 -4 6 7 5 5 5 7 9 12 13 11 10 4 0 0 7 12 13 15 12 7 5 4 8 7 4 5 7 6 4 5 7 7 7 5 5 6 6 9 13 14 14 12 10 7 8 9 10 9 nan
nan 11 9 7 4 2 4 6 10 12 10 7 2 2 5 6 9 12 11 10 7 5 5 4 4 5 9 11 10 7 6 7 11 14 12 10 8 8 10 13 17 17 10 3 6 12 9 11 10 7 7 12 4 -3 6 6 5 5 4 5 8 10 10 12 15 8 -0 -3 5 13 13 12 11 10 6 4 7 9 4 3 6 7 5 4 4 6 7 6 6 6 4 4 7 10 11 12 11 9 9 9 9 11 nan
nan 11 9 7 5 4 4 5 10 12 8 7 6 5 4 5 10 13 12 11 7 3 4 6 6 7 10 11 9 6 6 7 11 14 12 10 7 7 9 11 16 16 12 8 8 11 12 13 11 8 5 3 1 2 7 7 6 5 4 4 6 7 9 12 16 11 2 -3 1 9 12 12 11 7 3 3 6 9 8 3 5 10 8 5 3 5 6 6 6 6 5 5 6 8 9 10 10 11 12 11 10 11 nan
nan 10 10 7 6 6 5 4 9 11 6 4 7 7 4 5 11 12 7 8 7 5 6 8 9 8 9 10 10 8 7 6 9 12 12 10 8 7 8 10 13 14 13 13 11 11 12 12 14 13 5 -1 -1 6 9 7 4 6 7 4 2 4 6 11 16 17 9 1 -3 1 7 10 10 6 3 3 5 8 10 7 6 9 10 7 4 4 5 6 6 6 5 5 6 8 8 8 8 10 11 11 10 11 nan
nan 10 11 8 6 7 6 4 9 12 7 3 5 8 6 6 9 9 6 7 9 8 7 8 9 8 8 9 10 9 8 6 7 11 13 12 8 6 6 8 11 12 12 13 13 13 12 12 15 15 9 2 -1 3 7 6 5 9 10 5 0 1 4 8 15 19 15 7 -1 -1 3 6 7 6 5 6 5 6 10 10 8 7 9 8 6 4 6 7 6 5 5 5 6 7 7 7 8 9 9 9 10 11 nan
nan 11 10 8 6 6 6 5 9 11 7 4 5 6 6 7 8 8 8 9 11 10 5 5 7 8 8 9 10 10 9 5 6 10 13 12 8 4 6 7 9 10 10 10 12 13 14 13 15 16 13 8 0 -1 3 6 5 8 10 8 4 2 4 7 12 14 14 10 8 7 7 8 8 7 7 8 5 4 8 11 10 8 7 7 7 7 6 8 5 4 4 4 4 6 7 7 7 8 9 9 7 8 nan
nan 10 9 7 5 5 7 6 10 12 9 7 5 4 6 8 7 6 9 11 14 10 5 4 6 8 8 8 9 10 10 7 6 8 10 11 8 5 6 7 8 9 9 8 9 11 14 15 16 17 16 12 2 -3 1 7 3 1 8 12 10 8 7 6 6 7 7 8 14 15 13 13 12 11 9 9 5 2 5 10 12 10 7 6 6 7 8 8 6 4 5 5 4 4 6 8 8 8 9 8 6 5 nan
nan 9 8 7 6 6 7 7 10 12 10 9 5 3 7 8 5 5 9 11 13 10 6 5 8 8 7 6 7 8 9 8 7 6 7 9 8 7 6 6 8 10 9 7 7 9 12 15 18 18 17 12 3 0 5 9 2 -4 5 12 14 11 6 4 4 5 4 5 10 16 16 15 14 13 12 12 7 2 4 10 11 8 8 9 6 5 8 9 6 4 6 6 5 5 6 8 9 10 10 9 7 6 nan
nan 9 8 7 7 7 7 7 10 12 11 10 7 5 7 7 5 5 8 9 10 8 6 7 9 8 7 4 5 7 8 8 7 6 6 7 7 6 6 6 9 11 11 8 7 8 10 13 18 20 16 9 5 7 9 10 3 -4 3 9 12 9 5 5 6 5 4 3 5 12 14 13 11 10 11 14 12 7 6 8 7 6 9 12 7 4 7 10 7 4 5 7 6 6 6 8 9 10 10 11 9 7 nan
nan 10 8 6 6 7 7 8 10 11 10 10 8 8 8 7 5 4 6 7 9 8 6 8 9 8 7 5 5 7 7 7 7 6 5 6 6 6 7 7 8 10 11 10 7 7 9 10 17 20 14 7 7 11 10 8 4 0 4 7 10 10 7 6 6 5 2 0 4 10 12 12 8 6 7 10 11 9 7 5 5 7 9 12 9 6 7 9 8 6 5 7 7 6 6 7 7 8 10 11 10 9 nan
nan 11 8 6 5 6 8 8 9 10 10 8 8 9 9 7 5 4 5 6 8 8 7 9 10 9 7 4 5 7 7 8 8 7 6 6 7 8 7 6 7 8 10 11 9 7 10 11 17 16 8 5 8 12 10 7 4 3 4 8 12 14 10 5 5 6 3 -1 1 7 11 13 10 7 7 9 7 5 8 9 7 7 9 10 10 6 5 7 9 8 7 7 8 7 6 6 7 8 9 9 10 9 nan
nan 12 8 6 6 7 9 9 8 10 10 7 7 9 9 7 4 3 4 6 8 9 8 9 11 11 7 4 4 8 8 8 8 8 7 7 8 8 7 6 7 9 9 11 11 8 9 10 16 15 6 3 8 12 12 8 6 5 4 7 13 15 12 7 5 5 5 3 -0 1 7 12 11 9 10 10 6 5 10 13 9 7 8 8 9 8 6 4 7 9 8 7 8 8 6 6 7 8 8 8 8 8 nan
nan nan nan nan nan nan nan nan nan nan nan nan nan nan nan nan nan nan nan nan nan nan nan nan nan nan nan nan nan nan nan nan nan nan nan nan nan nan nan nan nan nan nan nan nan nan nan nan nan nan nan nan nan nan nan nan nan nan nan nan nan nan nan nan nan nan nan nan nan nan nan nan nan nan nan nan nan nan nan nan nan nan nan nan nan nan nan nan nan nan nan nan nan nan nan nan nan nan nan nan nan nan nan
CAPE
148 125 50 50 86 82 82 173 97 38 38 209 286 267 267 270 255 242 248 248 231 231 243 243 252 276 276 360 364 377 377 347 368 379 296 296 106 178 207 207 202 340 452 452 424 428 350 350 402 509 509 474 362 306 374 374 481 724 981 981 1116 926 607 607 454 425 425 464 456 387 387 335 317 288 273 273 256 221 169 169 120 81 62 62 60 52 52 45 32 3 3 nan nan nan nan nan nan nan nan nan nan nan nan
144 122 60 60 25 22 22 nan nan nan nan 0 134 218 218 221 189 196 202 202 190 175 188 188 213 257 257 339 361 372 372 418 411 347 240 240 126 187 220 220 231 327 370 370 377 363 310 310 398 426 426 356 283 297 352 352 411 710 943 943 1043 776 529 529 441 444 444 455 448 382 382 337 306 293 281 281 247 190 136 136 107 65 54 54 57 46 46 39 17 nan nan nan nan nan nan nan nan nan nan nan nan nan nan
94 120 85 85 67 21 21 nan nan nan nan nan 32 173 173 229 148 153 143 143 133 136 135 135 160 234 234 337 337 347 347 386 378 294 261 261 137 158 199 199 235 287 333 333 322 312 318 318 411 354 354 275 129 76 327 327 372 598 797 797 855 659 452 452 427 462 462 447 379 361 361 341 324 287 264 264 237 174 122 122 83 50 58 58 41 34 34 27 5 nan nan nan nan nan nan nan nan nan nan nan nan nan nan
53 51 71 71 67 40 40 nan nan nan nan nan nan 105 105 151 125 116 106 106 110 98 83 83 155 229 229 290 292 319 319 352 323 268 259 259 173 102 134 134 144 224 280 280 329 327 416 416 413 297 297 241 24 42 301 301 342 494 687 687 743 547 419 419 420 450 450 408 346 336 336 334 305 271 255 255 212 155 105 105 62 38 41 41 30 25 25 19 1 nan nan nan nan nan nan nan nan nan nan nan nan nan nan
49 nan 19 19 67 21 21 nan nan nan nan nan nan 41 41 100 91 108 99 99 75 62 74 74 161 240 240 263 246 271 271 274 271 218 205 205 169 105 112 112 65 137 225 225 338 385 372 372 385 236 236 82 5 126 252 252 321 460 608 608 655 475 393 393 394 393 393 365 335 339 339 330 302 266 232 232 200 147 94 94 52 40 31 31 26 25 25 13 0 nan nan nan nan nan nan nan nan nan nan nan nan nan nan
67 1 nan nan 4 nan nan nan nan nan nan nan nan 15 15 80 97 100 104 104 79 66 136 136 184 230 230 216 220 243 243 245 240 189 153 153 169 107 82 82 21 126 167 167 208 204 282 282 280 126 126 8 9 103 183 183 271 388 590 590 594 461 404 404 389 372 372 335 313 331 331 325 298 248 218 218 176 139 95 95 47 47 28 28 28 26 26 10 0 nan nan nan nan nan nan nan nan nan nan nan nan nan nan
101 31 nan nan nan nan nan nan nan nan nan nan nan 12 12 100 131 105 70 70 48 56 174 174 207 202 202 190 193 179 179 147 156 144 126 126 143 121 68 68 24 107 93 93 98 112 206 206 157 60 60 10 26 136 181 181 239 374 564 564 579 436 391 391 365 337 337 320 311 321 321 317 280 248 201 201 191 122 73 73 5 31 33 33 28 33 33 18 1 nan nan nan nan nan nan nan nan nan nan nan nan nan nan
155 81 19 19 nan nan nan nan nan nan nan nan nan 12 12 108 123 60 51 51 32 59 199 199 159 157 157 181 185 122 122 95 99 102 71 71 91 82 24 24 27 65 66 66 82 90 114 114 78 49 49 37 164 181 200 200 218 361 540 540 518 389 358 358 342 322 322 317 297 299 299 297 280 233 200 200 188 98 0 0 nan nan 1 1 19 30 30 22 nan nan nan nan nan nan nan nan nan nan nan nan nan nan nan
237 163 101 101 nan nan nan nan nan nan nan nan nan 31 31 119 88 34 19 19 45 128 172 172 115 145 145 207 158 100 100 74 91 79 40 40 30 5 6 6 16 48 46 46 73 49 37 37 42 45 45 100 200 284 276 276 261 370 517 517 425 372 331 331 334 318 318 314 277 272 272 278 255 226 210 210 186 61 nan nan nan nan nan nan nan 12 12 11 nan nan nan nan nan nan nan nan nan nan nan nan nan nan nan
480 394 295 295 115 nan nan nan 29 163 163 0 nan 45 45 112 40 20 25 25 109 202 161 161 115 172 172 162 121 83 83 62 52 33 18 18 nan nan nan nan 1 13 56 56 56 26 20 20 22 58 58 103 161 211 319 319 377 404 406 406 367 345 297 297 317 328 328 298 268 249 249 241 196 210 127 127 127 nan nan nan nan nan nan nan nan nan nan nan nan nan nan nan nan nan nan nan nan nan nan nan nan nan nan
616 528 387 387 209 64 64 46 53 280 280 44 1 48 48 92 45 24 36 36 112 189 173 173 145 164 164 133 95 76 76 68 47 22 10 10 nan 0 0 0 1 15 59 59 56 15 15 15 37 56 56 109 49 134 257 257 380 342 341 341 284 320 160 160 186 244 244 277 250 215 215 205 196 132 16 16 nan nan nan nan nan nan nan nan nan nan nan nan nan nan nan nan nan nan nan nan nan nan nan nan nan nan nan
728 610 467 467 284 198 198 137 97 417 417 110 30 50 50 82 47 27 39 39 98 136 162 162 158 142 142 112 89 69 69 51 34 19 8 8 0 1 1 1 4 20 52 52 46 20 19 19 44 69 69 95 36 146 219 219 297 237 231 231 209 269 90 90 120 165 165 184 161 114 114 106 89 30 nan nan nan nan nan nan nan nan nan nan nan nan nan nan nan nan nan nan nan nan nan nan nan nan nan nan nan nan nan
841 721 575 575 378 322 322 243 191 547 547 200 78 54 54 60 70 46 51 51 71 120 147 147 132 138 138 110 70 52 52 48 33 12 6 6 1 0 1 1 5 16 45 45 48 27 19 19 55 83 83 133 165 266 214 214 229 191 169 169 155 146 73 73 89 112 112 122 93 67 67 54 30 4 nan nan nan nan nan nan nan nan nan nan nan nan nan nan nan nan nan nan nan nan nan nan nan nan nan nan nan nan nan
957 835 686 686 506 444 444 356 269 596 596 339 145 73 73 67 72 46 54 54 60 104 132 132 138 132 132 106 67 49 49 45 23 11 6 6 1 0 0 0 1 8 30 30 51 6 33 33 73 103 103 180 229 291 205 205 182 162 143 143 124 94 60 60 64 75 75 78 58 52 52 42 16 nan nan nan nan nan nan nan nan nan nan nan nan nan nan nan nan nan nan nan nan nan nan nan nan nan nan nan nan nan nan
1043 950 766 766 641 572 572 479 362 590 590 493 231 114 114 79 79 48 45 45 64 91 117 117 126 123 123 99 63 47 47 33 20 10 7 7 1 0 0 0 0 7 15 15 34 14 42 42 76 111 111 191 189 260 201 201 156 150 126 126 107 70 45 45 42 45 45 41 35 45 45 33 9 nan nan nan nan nan nan nan nan nan nan nan nan nan nan nan nan nan nan nan nan nan nan nan nan nan nan nan nan nan nan
1161 1065 878 878 752 739 739 636 514 585 585 605 313 179 179 110 92 79 49 49 26 54 104 104 130 99 99 91 57 42 42 22 18 15 7 7 3 nan 0 0 0 2 16 16 14 32 39 39 68 112 112 182 177 233 173 173 151 129 108 108 84 48 28 28 31 32 32 27 29 37 37 27 8 nan nan nan nan nan nan nan nan nan nan nan nan nan nan nan nan nan nan nan nan nan nan nan nan nan nan nan nan nan nan
1214 1181 1022 1022 896 883 883 745 617 668 668 663 378 253 253 158 125 92 44 44 22 48 77 77 7 105 105 98 61 28 28 18 15 19 16 16 3 nan nan nan nan 0 10 10 20 36 42 42 56 115 115 191 163 180 153 153 143 118 93 93 61 29 19 19 25 23 23 22 26 30 30 18 0 nan nan nan nan nan nan nan nan nan nan nan nan nan nan nan nan nan nan nan nan nan nan nan nan nan nan nan nan nan nan
1303 1234 1105 1105 979 999 999 858 752 748 748 655 456 333 333 247 177 125 65 65 98 97 68 68 9 128 128 106 65 23 23 14 10 14 12 12 3 nan nan nan nan 0 10 10 29 54 48 48 56 124 124 179 149 155 138 138 124 102 72 72 37 16 14 14 21 17 17 17 20 23 23 6 nan nan nan nan nan nan nan nan nan nan nan nan nan nan nan nan nan nan nan nan nan nan nan nan nan nan nan nan nan nan nan
1327 1290 1191 1191 1093 1052 1052 943 803 796 796 612 475 394 394 303 252 179 142 142 110 105 34 34 77 133 133 130 73 26 26 9 6 9 7 7 1 nan nan nan 3 19 16 16 37 58 49 49 57 118 118 174 139 132 117 117 103 74 43 43 19 12 12 12 19 14 14 14 19 16 16 1 nan nan nan nan nan nan nan nan nan nan nan nan nan nan nan nan nan nan nan nan nan nan nan nan nan nan nan nan nan nan nan
1385 1347 1245 1245 1176 1103 1103 1028 887 754 754 569 488 435 435 385 308 235 179 179 142 132 27 27 113 136 136 139 82 30 30 11 7 5 8 8 2 nan nan nan 17 39 48 48 50 65 46 46 52 103 103 161 128 105 94 94 67 42 19 19 10 9 10 10 14 13 13 16 18 9 9 nan nan nan nan nan nan nan nan nan nan nan nan nan nan nan nan nan nan nan nan nan nan nan nan nan nan nan nan nan nan nan nan
1407 1402 1297 1297 1224 1150 1150 1014 942 680 680 554 497 448 448 448 367 290 234 234 158 144 70 70 137 141 141 144 91 36 36 22 4 2 9 9 5 1 1 1 22 71 72 72 73 66 37 37 46 98 98 152 113 85 69 69 37 16 6 6 5 7 8 8 10 10 10 13 11 3 3 nan nan nan nan nan nan nan nan nan nan nan nan nan nan nan nan nan nan nan nan nan nan nan nan nan nan nan nan nan nan nan nan
1390 1421 1279 1279 1238 1066 1066 964 895 637 637 540 480 457 457 460 404 324 246 246 192 161 133 133 129 128 128 151 97 52 52 19 6 2 3 3 15 10 17 17 31 120 83 83 71 60 36 36 48 98 98 141 89 58 35 35 10 2 1 1 2 5 5 5 3 5 5 4 3 0 0 nan nan nan nan nan nan nan nan nan nan nan nan nan nan nan nan nan nan nan nan nan nan nan nan nan nan nan nan nan nan nan nan
1404 1402 1328 1328 1217 1076 1076 1007 814 624 624 557 438 440 440 445 418 337 256 256 223 195 128 128 121 134 134 156 120 58 58 23 9 0 nan nan 8 37 27 27 56 112 51 51 67 42 32 32 50 115 115 112 67 31 11 11 nan nan nan nan 0 2 0 0 0 nan nan nan nan nan nan nan nan nan nan nan nan nan nan nan nan nan nan nan nan nan nan nan nan nan nan nan nan nan nan nan nan nan nan nan nan nan nan
1382 1382 1308 1308 1196 1120 1120 952 702 611 611 545 426 425 425 454 404 374 289 289 232 183 86 86 112 161 161 162 143 61 61 37 13 nan nan nan nan 17 65 65 104 105 36 36 24 26 30 30 40 94 94 82 42 13 nan nan nan nan nan nan nan 0 nan nan nan nan nan nan nan nan nan nan nan nan nan nan nan nan nan nan nan nan nan nan nan nan nan nan nan nan nan nan nan nan nan nan nan nan nan nan nan nan nan
1293 1327 1324 1324 1144 1099 1099 838 716 627 627 534 443 388 388 414 390 362 302 302 263 169 48 48 120 150 150 167 127 77 77 40 25 0 nan nan nan 0 63 63 109 131 41 41 1 12 26 26 27 52 52 41 18 2 nan nan nan nan nan nan nan nan nan nan nan nan nan nan nan nan nan nan nan nan nan nan nan nan nan nan nan nan nan nan nan nan nan nan nan nan nan nan nan nan nan nan nan nan nan nan nan nan nan
1171 1275 1307 1307 1094 1047 1047 883 701 613 613 523 434 377 377 400 353 374 364 364 300 177 51 51 109 159 159 133 132 95 95 41 28 1 0 0 0 1 44 44 145 140 20 20 nan 3 19 19 25 21 21 4 3 nan nan nan nan nan nan nan nan nan nan nan nan nan nan nan nan nan nan nan nan nan nan nan nan nan nan nan nan nan nan nan nan nan nan nan nan nan nan nan nan nan nan nan nan nan nan nan nan nan nan
1118 1158 1255 1255 1046 1000 1000 869 688 601 601 512 450 366 366 363 337 359 402 402 314 148 55 55 117 169 169 141 118 83 83 54 30 14 13 13 5 2 3 3 104 179 4 4 1 6 35 35 20 3 3 nan nan nan nan nan nan nan nan nan nan nan nan nan nan nan nan nan nan nan nan nan nan nan nan nan 3 8 nan nan nan nan nan nan nan nan nan nan nan nan nan nan nan nan nan nan nan nan nan nan nan nan nan
1068 1109 1204 1204 999 923 923 826 618 591 591 446 412 379 379 349 298 344 440 440 353 160 77 77 144 177 177 149 107 88 88 58 45 57 30 30 5 nan nan nan 48 192 32 32 11 30 57 57 27 nan nan nan nan nan nan nan nan nan nan nan nan nan nan nan nan nan nan nan nan nan nan nan nan 4 8 8 25 33 3 3 nan nan nan nan nan nan nan nan nan nan nan nan nan nan nan nan nan nan nan nan nan nan nan
953 995 1122 1122 891 848 848 816 580 582 582 464 428 393 393 359 306 327 450 450 391 237 103 103 153 165 165 120 112 77 77 63 94 114 50 50 13 nan nan nan 17 206 63 63 55 51 71 71 57 nan nan nan nan nan nan nan nan nan nan nan nan nan nan nan nan nan nan nan nan nan nan nan 4 15 10 10 22 35 3 3 nan nan nan nan nan nan nan nan nan nan nan nan nan nan nan nan nan nan nan nan nan nan nan
840 788 977 977 844 804 804 805 657 572 572 510 444 381 381 322 315 334 458 458 454 273 96 96 143 174 174 128 103 81 81 66 97 166 86 86 50 0 nan nan 15 214 104 104 77 55 63 63 64 nan nan nan nan nan nan nan nan nan nan nan nan nan nan nan 1 2 2 0 0 nan nan 3 17 24 24 24 31 36 nan nan nan nan nan nan nan nan nan nan nan nan nan nan nan nan nan nan nan nan nan nan nan nan nan
820 769 865 865 828 760 760 762 646 589 589 498 432 394 394 384 350 318 387 387 383 306 144 144 153 163 163 117 125 86 86 54 66 201 110 110 72 8 1 1 27 165 135 135 67 51 48 48 58 nan nan nan nan nan nan nan nan 0 1 1 2 1 0 0 2 7 7 6 2 3 3 17 27 25 26 26 32 27 nan nan nan nan nan nan nan nan nan nan nan nan nan nan nan nan nan nan nan nan nan nan nan nan nan
738 687 751 751 779 745 745 718 662 574 574 457 420 381 381 397 388 327 369 369 447 397 195 195 184 197 197 123 113 91 91 44 52 243 168 168 119 15 6 6 28 175 121 121 70 40 41 41 50 nan nan nan nan nan nan nan nan 4 8 8 7 4 1 1 5 14 14 19 13 19 19 34 40 33 29 29 26 2 nan nan nan nan nan nan nan nan nan nan nan nan nan nan nan nan nan nan nan nan nan nan nan nan nan
667 731 674 674 647 650 650 625 571 544 544 483 444 433 433 421 436 398 388 388 445 338 365 365 277 264 264 112 62 70 70 62 58 122 182 182 214 82 50 50 65 154 56 56 33 27 18 18 3 4 4 nan nan nan nan nan 5 24 30 30 26 18 24 24 25 31 31 42 59 66 66 58 49 43 27 27 9 nan nan nan nan nan nan nan nan nan nan nan nan nan nan nan nan nan nan nan nan nan nan nan nan nan nan
678 708 455 455 431 630 630 606 554 528 528 466 456 473 473 460 446 434 401 401 403 323 406 406 342 269 269 133 51 58 58 67 47 81 158 158 190 113 74 74 54 138 42 42 33 31 7 7 0 14 14 5 nan nan 2 2 7 27 42 42 40 39 44 44 39 45 45 58 71 74 74 59 54 40 26 26 5 nan nan nan nan nan nan nan nan nan nan nan nan nan nan nan nan nan nan nan nan nan nan nan nan nan nan
599 568 407 407 333 609 609 588 566 540 540 535 468 513 513 500 457 419 387 387 387 362 418 418 380 275 275 136 50 60 60 70 48 44 82 82 110 93 131 131 80 62 33 33 33 32 2 2 1 52 52 10 3 1 9 9 13 31 51 51 58 55 60 60 53 46 46 65 73 66 66 58 57 42 19 19 2 nan nan nan nan nan nan nan nan nan nan nan nan nan nan nan nan nan nan nan nan nan nan nan nan nan nan
523 466 413 413 389 618 618 630 608 611 611 576 480 554 554 513 442 349 344 344 343 319 346 346 336 260 260 167 65 46 46 54 34 29 45 45 66 74 164 164 76 41 18 18 22 36 2 2 6 29 29 13 7 10 14 14 14 35 61 61 80 74 69 69 59 60 60 70 75 66 66 58 55 44 25 25 nan nan nan nan nan nan nan nan nan nan nan nan nan nan nan nan nan nan nan nan nan nan nan nan nan nan nan
426 398 370 370 424 630 630 672 681 623 623 617 578 568 568 526 427 307 353 353 325 329 303 303 293 222 222 94 84 62 62 54 20 32 8 8 30 84 172 172 115 19 9 9 17 31 27 27 14 18 18 16 6 15 18 18 15 38 72 72 99 102 80 80 65 65 65 76 74 71 71 70 52 43 20 20 nan nan nan nan nan nan nan nan nan nan nan nan nan nan nan nan nan nan nan nan nan nan nan nan nan nan nan
415 359 355 355 576 674 674 746 692 664 664 629 620 610 610 540 382 369 334 334 333 333 304 304 271 182 182 122 87 63 63 59 20 12 7 7 23 71 156 156 124 18 15 15 15 20 44 44 36 27 27 20 5 17 24 24 22 45 80 80 108 110 78 78 66 62 62 70 70 73 73 70 50 43 12 12 nan nan nan nan nan nan nan nan nan nan nan nan nan nan nan nan nan nan nan nan nan nan nan nan nan nan nan
404 372 502 502 649 718 718 791 704 706 706 670 571 621 621 525 424 379 316 316 311 305 272 272 247 104 104 88 73 68 68 68 12 5 6 6 12 60 84 84 61 21 19 19 14 9 60 60 77 42 42 30 8 23 30 30 29 50 85 85 115 106 90 90 61 50 50 61 73 66 66 61 34 24 6 6 nan nan nan nan nan nan nan nan nan nan nan nan nan nan nan nan nan nan nan nan nan nan nan nan nan nan nan
420 414 546 546 725 763 763 804 746 686 686 620 552 631 631 535 405 359 348 348 313 250 197 197 198 51 51 18 86 148 148 101 21 3 5 5 17 37 28 28 15 17 27 27 15 2 56 56 79 81 81 55 21 34 40 40 39 59 89 89 98 87 74 74 58 46 46 62 65 56 56 59 37 37 3 3 nan nan nan nan nan nan nan nan nan nan nan nan nan nan nan nan nan nan nan nan nan nan nan nan nan nan nan
463 456 560 560 708 808 808 816 758 607 607 600 621 642 642 544 283 290 328 328 291 229 177 177 196 146 146 117 112 157 157 110 23 4 1 1 14 55 43 43 6 17 33 33 17 2 43 43 63 102 102 75 36 42 48 48 52 72 90 90 80 81 64 64 42 46 46 61 60 51 51 52 37 15 25 25 nan nan nan nan nan nan nan nan nan nan nan nan nan nan nan nan nan nan nan nan nan nan nan nan nan nan nan
507 500 546 546 752 854 854 797 768 616 616 525 660 653 653 583 241 250 308 308 157 108 161 161 134 54 54 46 37 69 69 75 60 31 30 30 33 42 48 48 4 6 30 30 23 6 45 45 52 121 121 103 52 47 59 59 65 84 86 86 71 62 27 27 23 34 34 61 65 54 54 49 38 11 0 0 nan nan nan nan nan nan nan nan nan nan nan nan nan nan nan nan nan nan nan nan nan nan nan nan nan nan nan
552 515 560 560 796 867 867 809 779 684 684 451 700 544 544 445 348 305 153 153 86 21 109 109 141 76 76 nan 5 66 66 77 71 37 48 48 54 57 52 52 12 1 23 23 30 12 39 39 47 116 116 103 60 62 68 68 74 82 79 79 72 60 39 39 25 9 9 48 63 61 61 53 41 3 nan nan nan nan nan nan nan nan nan nan nan nan nan nan nan nan nan nan nan nan nan nan nan nan nan nan nan nan nan
536 528 633 633 874 880 880 790 758 723 723 351 478 467 467 292 184 263 24 24 30 0 62 62 55 47 47 13 4 26 26 52 61 41 65 65 60 47 42 42 8 0 12 12 31 20 29 29 35 97 97 101 75 58 70 70 73 76 73 73 68 52 43 43 35 17 17 26 44 58 58 54 38 19 nan nan nan nan nan nan nan nan nan nan nan nan nan nan nan nan nan nan nan nan nan nan nan nan nan nan nan nan nan
548 568 767 767 858 861 861 802 768 613 613 411 570 531 531 200 166 199 85 85 11 43 51 51 nan 0 0 1 20 31 31 48 20 20 35 35 54 43 31 31 6 nan 3 3 28 37 25 25 25 83 83 78 87 48 76 76 76 74 72 72 63 54 53 53 47 33 33 26 39 52 52 42 24 9 nan nan nan nan nan nan nan nan nan nan nan nan nan nan nan nan nan nan nan nan nan nan nan nan nan nan nan nan nan
558 637 781 781 872 813 813 783 748 681 681 614 635 454 454 230 264 159 89 89 51 46 40 40 32 15 15 17 18 46 46 50 12 1 8 8 39 32 13 13 0 nan 0 0 28 52 30 30 16 58 58 61 60 51 76 76 81 77 74 74 61 58 61 61 58 44 44 19 34 47 47 27 13 32 nan nan nan nan nan nan nan nan nan nan nan nan nan nan nan nan nan nan nan nan nan nan nan nan nan nan nan nan nan
598 648 794 794 824 795 795 763 728 690 690 681 614 406 406 285 269 162 92 92 69 65 59 59 36 35 35 37 39 58 58 62 36 12 47 47 32 15 7 7 nan nan nan nan 34 63 34 34 8 29 29 40 46 65 70 70 82 81 70 70 55 56 55 55 67 52 52 7 22 25 25 28 14 5 nan nan nan nan nan nan nan nan nan nan nan nan nan nan nan nan nan nan nan nan nan nan nan nan nan nan nan nan nan
578 630 777 777 777 747 747 744 738 699 699 659 536 308 308 342 273 165 114 114 90 68 46 46 40 40 40 27 29 33 33 54 42 31 49 49 19 13 2 2 nan nan nan nan 23 60 47 47 7 15 15 21 33 84 67 67 79 78 62 62 54 45 20 20 30 58 58 22 7 6 6 8 8 14 3 3 nan nan nan nan nan nan nan nan nan nan nan nan nan nan nan nan nan nan nan nan nan nan nan nan nan nan nan
618 642 791 791 760 760 760 755 748 677 677 638 404 289 289 375 279 168 81 81 60 14 33 33 29 46 46 3 13 6 6 31 49 37 28 28 22 16 3 3 nan nan nan nan 12 43 40 40 8 5 5 28 34 72 61 61 73 74 61 61 47 37 16 16 19 38 38 26 0 0 0 0 nan 21 7 7 nan nan nan nan nan nan nan nan nan nan nan nan nan nan nan nan nan nan nan nan nan nan nan nan nan nan nan
598 652 772 772 742 591 591 644 756 656 656 617 465 425 425 410 286 173 54 54 48 5 10 10 7 35 35 1 5 18 18 30 75 48 27 27 28 12 6 6 nan nan nan nan 3 25 37 37 14 4 4 31 27 57 56 56 66 78 59 59 48 38 33 33 33 17 17 11 nan nan nan nan nan nan 1 1 0 nan nan nan nan nan nan nan nan nan nan nan nan nan nan nan nan nan nan nan nan nan nan nan nan nan nan
578 662 783 783 723 485 485 565 766 695 695 596 500 253 253 336 267 155 89 89 67 nan 2 2 0 nan nan 6 8 10 10 37 65 6 45 45 34 13 4 4 0 nan nan nan 1 12 29 29 20 7 7 18 24 61 56 56 58 77 64 64 50 32 36 36 38 19 19 3 14 nan nan nan nan nan 1 1 nan nan nan nan nan nan nan nan nan nan nan nan nan nan nan nan nan nan nan nan nan nan nan nan nan nan nan
586 582 794 794 704 701 701 460 773 642 642 517 507 357 357 266 272 161 93 93 55 nan nan nan nan nan nan nan nan nan nan nan 30 10 55 55 29 8 1 1 2 0 nan nan nan 5 10 10 18 11 11 8 8 38 52 52 45 61 61 61 44 27 35 35 37 14 14 5 10 nan nan nan nan nan nan nan nan nan nan nan nan nan nan nan nan nan nan nan nan nan nan nan nan nan nan nan nan nan nan nan nan nan nan
566 563 805 805 746 742 742 671 781 711 711 309 485 444 444 136 66 145 97 97 43 9 nan nan nan nan nan nan nan nan nan nan 19 60 63 63 36 13 0 0 1 2 0 0 1 0 nan nan 10 10 10 4 5 31 49 49 28 37 48 48 41 23 38 38 39 0 0 0 3 nan nan nan nan nan nan nan nan nan nan nan nan nan nan nan nan nan nan nan nan nan nan nan nan nan nan nan nan nan nan nan nan nan nan
576 603 664 664 787 752 752 709 789 719 719 420 520 451 451 328 56 151 102 102 45 1 nan nan nan nan nan nan nan 0 0 11 26 47 51 51 26 6 0 0 0 2 1 1 0 nan nan nan 6 12 12 8 7 23 48 48 19 16 35 35 37 28 40 40 26 nan nan nan nan nan nan nan nan nan nan nan nan nan nan nan nan nan nan nan nan nan nan nan nan nan nan nan nan nan nan nan nan nan nan nan nan nan nan
559 643 674 674 797 761 761 687 616 606 606 598 527 431 431 310 151 157 91 91 9 nan nan nan nan nan nan nan nan nan nan 5 16 33 45 45 22 11 1 1 nan 1 0 0 nan nan 1 1 5 15 15 16 12 17 37 37 16 8 25 25 25 28 17 17 19 nan nan nan nan nan nan nan nan nan nan nan nan nan nan nan nan nan nan nan nan nan nan nan nan nan nan nan nan nan nan nan nan nan nan nan nan nan nan
543 743 744 744 775 738 738 696 427 556 556 605 505 359 359 195 156 124 47 47 nan nan nan nan nan nan nan nan nan 0 0 2 2 14 28 28 12 5 1 1 1 2 0 0 nan nan nan nan 2 14 14 6 1 nan 11 11 6 0 10 10 19 19 nan nan 10 5 5 nan nan nan nan nan nan nan nan nan nan nan nan nan nan nan nan nan nan nan nan nan nan nan nan nan nan nan nan nan nan nan nan nan nan nan nan
593 587 733 733 792 753 753 682 640 403 403 528 408 318 318 205 89 35 27 27 nan nan nan nan nan nan nan nan nan nan nan 0 0 nan 16 16 16 1 1 1 0 0 nan nan nan nan 4 4 2 nan nan 1 5 5 nan nan nan nan 1 1 27 16 0 0 6 6 6 19 nan nan nan nan nan nan nan nan nan nan nan nan nan nan nan nan nan nan nan nan nan nan nan nan nan nan nan nan nan nan nan nan nan nan nan
603 714 743 743 770 761 761 688 587 574 574 506 413 250 250 144 77 16 1 1 nan nan nan nan nan nan nan nan nan nan nan nan 0 nan 4 4 17 1 nan nan nan nan nan nan nan nan nan nan 3 nan nan 0 5 2 nan nan nan 0 nan nan 5 9 9 9 22 29 29 13 nan nan nan nan nan nan nan nan nan nan nan nan nan nan nan nan nan nan nan nan nan nan nan nan nan nan nan nan nan nan nan nan nan nan nan
642 754 782 782 778 737 737 634 564 581 581 484 391 230 230 127 80 2 nan nan 0 nan nan nan nan nan nan nan nan nan nan nan nan nan 1 1 13 nan nan nan nan nan nan nan nan nan nan nan nan nan nan nan nan nan nan nan nan nan nan nan 0 3 13 13 23 30 30 2 nan nan nan nan nan nan nan nan nan nan nan nan nan nan nan nan nan nan nan nan nan nan nan nan nan nan nan nan nan nan nan nan nan nan nan
710 764 728 728 753 743 743 610 460 560 560 463 319 234 234 132 102 11 nan nan 9 nan nan nan nan nan nan nan nan nan nan nan nan nan nan nan 5 0 nan nan nan nan nan nan nan nan nan nan nan nan nan nan nan nan nan nan nan nan nan nan nan nan 4 4 11 12 12 nan nan nan nan nan nan nan nan nan nan nan nan nan nan nan nan nan nan nan nan nan nan nan nan nan nan nan nan nan nan nan nan nan nan nan nan
720 742 177 177 728 717 717 677 494 539 539 443 324 238 238 136 107 24 nan nan nan nan nan nan nan nan nan nan nan nan nan nan nan nan nan nan 1 4 0 0 1 nan nan nan nan nan nan nan nan nan nan nan nan nan nan nan nan nan nan nan nan nan nan nan nan nan nan nan nan nan nan nan nan nan nan nan nan nan nan nan nan nan nan nan nan nan nan nan nan nan nan nan nan nan nan nan nan nan nan nan nan nan nan